TJS-19

Last updated on Sun Apr 12 2026 00:02:57 GMT+0000 (Coordinated Universal Time)

1 63924U 25097A 26101.80089397 -.00000279 00000+0 00000+0 0 9998 2 63924 3.4009 316.3717 0001440 342.4850 330.7366 1.00270421 3474
UTC large
Height (km)
Speed (km/s)
/
Latitude / Longitude
Inclination (degrees)
Orbital Period (minutes)
Azimuth
Elevation
Range (km)
Doppler Factor

Next 0 passes for location: London (51.5072 / 0.1276)

Sorry there are no passes over London.
TJS-19